Overview Statistics Trail Chart Weather Telemetry Raw packets
 

This is the latest recevied weather packets stored in our database for station/object SV9FBP-13. If no packets are shown the sender has not sent any weather packets the latest 10 day(s).

<< 21 22 23 24 25 26 27 >>
Time Temp. Humidity Pressure Rain* Wind** Luminosity Snow
1788157886 30° C 43% 1010 hPa 0 mm - - -
1788156984 29.44° C 44% 1009.8 hPa 0 mm - - -
1788156084 28.89° C 45% 1009.9 hPa 0 mm - - -
1788155180 28.89° C 47% 1009.7 hPa 0 mm - - -
1788154277 28.89° C 47% 1009.7 hPa 0 mm - - -
1788153375 28.89° C 46% 1009.7 hPa 0 mm - - -
1788152473 28.89° C 41% 1009.8 hPa 0 mm - - -
1788151571 28.33° C 41% 1009.8 hPa 0 mm - - -
1788150669 27.78° C 50% 1009.9 hPa 0 mm - - -
1788149766 27.22° C 53% 1009.9 hPa 0 mm - - -
1788148865 26.67° C 56% 1010 hPa 0 mm - - -
1788147962 26.67° C 59% 1009.7 hPa 0 mm - - -
1788147070 27.22° C 56% 1009.7 hPa 0 mm - - -
1788146158 27.78° C 43% 1009.7 hPa 0 mm - - -
1788145256 27.78° C 43% 1009.4 hPa 0 mm - - -
1788144354 27.78° C 43% 1009.6 hPa 0 mm - - -
1788143451 27.78° C 42% 1009.5 hPa 0 mm - - -
1788142549 27.78° C 41% 1009.5 hPa 0 mm - - -
1788141647 27.78° C 42% 1009.6 hPa 0 mm - - -
1788140744 27.78° C 42% 1009.9 hPa 0 mm - - -
1788139843 27.78° C 42% 1009.8 hPa 0 mm - - -
1788138940 27.78° C 41% 1009.8 hPa 0 mm - - -
1788138038 27.78° C 40% 1009.9 hPa 0 mm - - -
1788137136 27.78° C 40% 1009.9 hPa 0 mm - - -
1788136235 27.78° C 39% 1009.8 hPa 0 mm - - -

* Rain latest hour (hover to see other rain measurements)
** Current wind speed in m/s (hover to see current wind gust speed)